URO681A EGHH-ZUCK

Flight info

Callsign URO681A
Flight time N/A
Altitude 37000
Route BEGTO N16 BIG L607 KONAN UL607 KOK M150 PITES DCT NOMBO Y161 RIDAR Z98 WLD T702 BADIT DCT SASAL DCT MAVIR DCT NEKUL DCT PETOS DCT NEDSI T343 UDROS UM859 KARDE UN644 ROLIN N644 LAGAS M747 LUSAL N199 RASAM L88 METKA B476 DARVA/K0891F370 T898 OGOLI N193 SR L163 TISIB L141 KAMUD/K0885S1130 W186 SADAN Y1 OMBON W245 OVRAL B330 VIMAM W235 UBRAB B213 VINEX
Aircraft A346/H-SDE2E3FGHIJ3J4J5M1RWXY/LB1D1

Departure

Time 2026-05-08 22:04
Airport Bournemouth Airport (EGHH)

Arrival

Time N/A
Airport Chongqing Jiangbei International Airport (ZUCK)
Time Latitude Longitude Altitude Speed Heading
2026-05-08 21:38 50.78605 -1.84244 54 ft 0 kts 256°
2026-05-08 21:55 50.78610 -1.84214 46 ft 4 kts 256°
2026-05-08 21:55 50.78616 -1.84178 46 ft 4 kts 249°
2026-05-08 21:55 50.78626 -1.84151 46 ft 4 kts 217°
2026-05-08 21:56 50.78668 -1.84147 46 ft 4 kts 165°
2026-05-08 21:56 50.78688 -1.84156 48 ft 1 kts 166°
2026-05-08 21:56 50.78691 -1.84157 46 ft 0 kts 166°
2026-05-08 21:58 50.78687 -1.84155 48 ft 2 kts 166°
2026-05-08 21:58 50.78665 -1.84146 46 ft 5 kts 166°
2026-05-08 21:58 50.78615 -1.84126 46 ft 9 kts 166°
2026-05-08 21:59 50.78518 -1.84086 48 ft 16 kts 165°
2026-05-08 21:59 50.78403 -1.84039 50 ft 18 kts 165°
2026-05-08 21:59 50.78280 -1.83988 48 ft 14 kts 165°
2026-05-08 21:59 50.78240 -1.83972 52 ft 0 kts 165°
2026-05-08 22:00 50.78220 -1.83964 51 ft 12 kts 165°
2026-05-08 22:00 50.78123 -1.83924 51 ft 15 kts 166°
2026-05-08 22:00 50.78046 -1.84002 52 ft 17 kts 255°
2026-05-08 22:00 50.78011 -1.84201 49 ft 20 kts 257°
2026-05-08 22:01 50.77979 -1.84425 49 ft 22 kts 255°
2026-05-08 22:01 50.77939 -1.84663 48 ft 23 kts 255°
2026-05-08 22:01 50.77898 -1.84913 49 ft 24 kts 255°
2026-05-08 22:01 50.77853 -1.85182 53 ft 26 kts 255°
2026-05-08 22:02 50.77805 -1.85465 51 ft 27 kts 255°
2026-05-08 22:02 50.77736 -1.85697 53 ft 13 kts 218°
2026-05-08 22:02 50.77724 -1.85741 47 ft 7 kts 295°
2026-05-08 22:02 50.77753 -1.85749 46 ft 6 kts 48°
2026-05-08 22:03 50.77772 -1.85666 51 ft 9 kts 75°
2026-05-08 22:03 50.77774 -1.85653 52 ft 0 kts 75°
2026-05-08 22:03 50.77774 -1.85652 52 ft 1 kts 75°
2026-05-08 22:03 50.77831 -1.85312 53 ft 68 kts 75°
2026-05-08 22:04 50.78009 -1.84236 52 ft 132 kts 75°
2026-05-08 22:04 50.78278 -1.82611 249 ft 160 kts 75°
2026-05-08 22:04 50.78549 -1.80935 970 ft 156 kts 76°
2026-05-08 22:04 50.78823 -1.79241 1608 ft 160 kts 78°
2026-05-08 22:05 50.79098 -1.77506 2226 ft 167 kts 79°
2026-05-08 22:05 50.79148 -1.75632 2779 ft 177 kts 99°
2026-05-08 22:05 50.78893 -1.73637 3267 ft 193 kts 100°
2026-05-08 22:05 50.78706 -1.71433 3772 ft 211 kts 97°
2026-05-08 22:06 50.78732 -1.69018 4241 ft 230 kts 85°
2026-05-08 22:06 50.78948 -1.66393 4634 ft 248 kts 83°
2026-05-08 22:06 50.79202 -1.63589 5060 ft 264 kts 84°
2026-05-08 22:06 50.79454 -1.60663 5748 ft 269 kts 84°
2026-05-08 22:07 50.79696 -1.57715 6539 ft 271 kts 84°
2026-05-08 22:07 50.79929 -1.54743 7259 ft 275 kts 85°
2026-05-08 22:07 50.80159 -1.51713 7987 ft 279 kts 85°
2026-05-08 22:07 50.80389 -1.48641 8724 ft 283 kts 85°
2026-05-08 22:08 50.80619 -1.45522 9471 ft 287 kts 85°
2026-05-08 22:08 50.80560 -1.42409 10135 ft 288 kts 104°
2026-05-08 22:08 50.80013 -1.39335 10699 ft 297 kts 110°
2026-05-08 22:08 50.79324 -1.36191 11061 ft 313 kts 111°
2026-05-08 22:09 50.78565 -1.32870 11406 ft 330 kts 111°
2026-05-08 22:09 50.77750 -1.29359 11734 ft 348 kts 111°
2026-05-08 22:09 50.76889 -1.25673 12062 ft 366 kts 111°
2026-05-08 22:09 50.75987 -1.21826 12416 ft 382 kts 111°
2026-05-08 22:10 50.75056 -1.17872 13064 ft 389 kts 111°
2026-05-08 22:10 50.74077 -1.13721 13768 ft 393 kts 111°
2026-05-08 22:10 50.73123 -1.09681 14063 ft 395 kts 111°
2026-05-08 22:10 50.72159 -1.05606 14108 ft 396 kts 111°
2026-05-08 22:11 50.71197 -1.01546 14241 ft 403 kts 111°
2026-05-08 22:11 50.70209 -0.97382 14933 ft 404 kts 111°
2026-05-08 22:11 50.69219 -0.93214 15734 ft 405 kts 111°
2026-05-08 22:11 50.68226 -0.89029 16404 ft 409 kts 111°
2026-05-08 22:12 50.67231 -0.84792 17062 ft 414 kts 110°
2026-05-08 22:12 50.66713 -0.80296 17593 ft 423 kts 89°
2026-05-08 22:12 50.67226 -0.75710 18273 ft 427 kts 74°
2026-05-08 22:12 50.68125 -0.71245 18878 ft 430 kts 72°
2026-05-08 22:13 50.69075 -0.66738 19403 ft 435 kts 72°
2026-05-08 22:13 50.70000 -0.62168 19971 ft 438 kts 73°
2026-05-08 22:13 50.70888 -0.57557 20553 ft 441 kts 74°
2026-05-08 22:13 50.71754 -0.52885 21128 ft 444 kts 75°
2026-05-08 22:14 50.72607 -0.48165 21692 ft 448 kts 75°
2026-05-08 22:14 50.73453 -0.43410 22257 ft 451 kts 75°
2026-05-08 22:14 50.74296 -0.38617 22810 ft 454 kts 75°
2026-05-08 22:14 50.75135 -0.33813 23361 ft 457 kts 76°
2026-05-08 22:15 50.75988 -0.28901 23878 ft 461 kts 76°
2026-05-08 22:15 50.76835 -0.24004 24312 ft 464 kts 76°
2026-05-08 22:15 50.77695 -0.19017 24759 ft 467 kts 76°
2026-05-08 22:15 50.78549 -0.14045 25206 ft 470 kts 76°
2026-05-08 22:16 50.79409 -0.09029 25638 ft 473 kts 76°
2026-05-08 22:16 50.80273 -0.03975 26066 ft 477 kts 76°
2026-05-08 22:16 50.81143 0.01140 26497 ft 480 kts 75°
2026-05-08 22:16 50.82011 0.06257 26890 ft 483 kts 75°
2026-05-08 22:17 50.82885 0.11413 27300 ft 486 kts 75°
2026-05-08 22:17 50.83761 0.16589 27862 ft 485 kts 75°
2026-05-08 22:17 50.84631 0.21750 28517 ft 483 kts 75°
2026-05-08 22:17 50.85491 0.26874 29162 ft 482 kts 75°
2026-05-08 22:18 50.86352 0.32017 29750 ft 481 kts 75°
2026-05-08 22:18 50.87209 0.37150 30302 ft 481 kts 75°
2026-05-08 22:18 50.88060 0.42267 30787 ft 480 kts 75°
2026-05-08 22:18 50.88910 0.47391 31245 ft 480 kts 75°
2026-05-08 22:19 50.89753 0.52511 31719 ft 479 kts 74°
2026-05-08 22:19 50.90595 0.57623 32232 ft 478 kts 74°
2026-05-08 22:19 50.91433 0.62714 32750 ft 476 kts 74°
2026-05-08 22:19 50.92266 0.67791 33234 ft 475 kts 74°
2026-05-08 22:20 50.93095 0.72865 33708 ft 473 kts 74°
2026-05-08 22:20 50.93917 0.77909 34180 ft 472 kts 74°
2026-05-08 22:20 50.94737 0.82955 34576 ft 471 kts 74°
2026-05-08 22:20 50.95553 0.87988 34943 ft 471 kts 74°
2026-05-08 22:21 50.96357 0.92965 35300 ft 470 kts 75°
2026-05-08 22:21 50.97165 0.97999 35646 ft 470 kts 74°
2026-05-08 22:21 50.97968 1.03015 35993 ft 469 kts 74°
2026-05-08 22:21 50.98768 1.08011 36322 ft 469 kts 74°
2026-05-08 22:22 50.99571 1.13039 36570 ft 470 kts 74°
2026-05-08 22:22 51.00376 1.18093 36757 ft 473 kts 75°
2026-05-08 22:22 51.01181 1.23168 36919 ft 476 kts 75°
2026-05-08 22:22 51.01988 1.28277 37098 ft 478 kts 75°
2026-05-08 22:23 51.02800 1.33426 37140 ft 482 kts 75°
2026-05-08 22:23 51.04431 1.43844 37147 ft 486 kts 75°
2026-05-08 22:24 51.06055 1.54285 37144 ft 486 kts 75°
2026-05-08 22:24 51.07682 1.64812 37143 ft 486 kts 75°
2026-05-08 22:25 51.09271 1.75207 37152 ft 486 kts 75°
2026-05-08 22:25 51.10862 1.85673 37145 ft 486 kts 75°
2026-05-08 22:26 51.12090 1.96302 37142 ft 487 kts 81°
2026-05-08 22:26 51.12532 2.07033 37141 ft 487 kts 89°
2026-05-08 22:27 51.12203 2.17812 37149 ft 488 kts 94°
2026-05-08 22:27 51.11634 2.28585 37143 ft 488 kts 94°
2026-05-08 22:28 51.11067 2.39377 37143 ft 488 kts 93°
2026-05-08 22:28 51.10499 2.50141 37134 ft 487 kts 94°
2026-05-08 22:29 51.09386 2.60810 37141 ft 489 kts 103°
2026-05-08 22:29 51.07365 2.71163 37137 ft 489 kts 111°
2026-05-08 22:30 51.04486 2.81004 37135 ft 490 kts 118°
2026-05-08 22:30 51.01261 2.90559 37148 ft 491 kts 118°
2026-05-08 22:31 50.98021 3.00153 37128 ft 491 kts 117°
2026-05-08 22:31 50.94792 3.09716 37125 ft 491 kts 117°
2026-05-08 22:32 50.91558 3.19274 37134 ft 491 kts 118°
2026-05-08 22:32 50.88313 3.28829 37132 ft 491 kts 118°
2026-05-08 22:33 50.85057 3.38374 37141 ft 493 kts 117°
2026-05-08 22:33 50.81787 3.47936 37132 ft 494 kts 118°
2026-05-08 22:34 50.78509 3.57483 37129 ft 494 kts 118°
2026-05-08 22:34 50.75244 3.66955 37125 ft 494 kts 118°
2026-05-08 22:35 50.71947 3.76483 37126 ft 494 kts 118°
2026-05-08 22:35 50.68635 3.86014 37130 ft 495 kts 118°
2026-05-08 22:36 50.65312 3.95550 37127 ft 495 kts 118°
2026-05-08 22:36 50.61976 4.05086 37120 ft 495 kts 118°
2026-05-08 22:37 50.58637 4.14593 37144 ft 495 kts 118°
2026-05-08 22:37 50.55290 4.24087 37140 ft 495 kts 118°
2026-05-08 22:38 50.51937 4.33562 37141 ft 495 kts 118°
2026-05-08 22:38 50.48579 4.43017 37144 ft 496 kts 118°
2026-05-08 22:39 50.45210 4.52468 37142 ft 496 kts 118°
2026-05-08 22:39 50.41831 4.61911 37155 ft 495 kts 118°
2026-05-08 22:40 50.38466 4.71277 37125 ft 497 kts 118°
2026-05-08 22:40 50.35063 4.80722 37129 ft 497 kts 118°
2026-05-08 22:41 50.31656 4.90139 37112 ft 497 kts 118°
2026-05-08 22:41 50.28241 4.99548 37137 ft 497 kts 118°
2026-05-08 22:42 50.24811 5.08958 37127 ft 497 kts 118°
2026-05-08 22:42 50.21377 5.18346 37144 ft 497 kts 118°
2026-05-08 22:43 50.17932 5.27728 37125 ft 497 kts 119°
2026-05-08 22:43 50.14481 5.37092 37130 ft 497 kts 119°
2026-05-08 22:44 50.11028 5.46447 37127 ft 497 kts 119°
2026-05-08 22:44 50.07572 5.55786 37139 ft 496 kts 119°
2026-05-08 22:45 50.04117 5.65089 37136 ft 496 kts 119°
2026-05-08 22:45 50.00654 5.74373 37130 ft 496 kts 119°
2026-05-08 22:46 49.97177 5.83661 37146 ft 496 kts 119°
2026-05-08 22:46 49.93697 5.92929 37156 ft 496 kts 120°
2026-05-08 22:47 49.90230 6.02129 37132 ft 494 kts 120°
2026-05-08 22:47 49.86744 6.11338 37134 ft 494 kts 119°
2026-05-08 22:48 49.83486 6.20733 37134 ft 494 kts 117°
2026-05-08 22:48 49.80287 6.30175 37140 ft 494 kts 117°
2026-05-08 22:49 49.77623 6.38010 37133 ft 495 kts 117°
2026-05-08 22:49 49.73130 6.52449 37123 ft 494 kts 110°
2026-05-08 22:50 49.71000 6.62549 37112 ft 494 kts 104°
2026-05-08 22:50 49.69258 6.72859 37111 ft 494 kts 104°
2026-05-08 22:51 49.67522 6.83133 37112 ft 494 kts 104°
2026-05-08 22:51 49.65764 6.93385 37119 ft 493 kts 104°
2026-05-08 22:52 49.63988 7.03647 37131 ft 493 kts 104°
2026-05-08 22:52 49.62206 7.13880 37130 ft 493 kts 104°
2026-05-08 22:53 49.60414 7.24123 37133 ft 494 kts 105°
2026-05-08 22:53 49.58612 7.34359 37130 ft 494 kts 105°
2026-05-08 22:54 49.56809 7.44527 37131 ft 494 kts 105°
2026-05-08 22:54 49.54975 7.54816 37124 ft 494 kts 105°
2026-05-08 22:55 49.53158 7.64960 37126 ft 494 kts 105°
2026-05-08 22:55 49.51321 7.75169 37123 ft 494 kts 105°
2026-05-08 22:56 49.49468 7.85382 37122 ft 494 kts 105°
2026-05-08 22:56 49.47610 7.95575 37125 ft 494 kts 105°
2026-05-08 22:57 49.45745 8.05757 37125 ft 496 kts 106°
2026-05-08 22:57 49.43861 8.15996 37127 ft 496 kts 106°
2026-05-08 22:58 49.41969 8.26197 37124 ft 496 kts 106°
2026-05-08 22:58 49.40067 8.36404 37123 ft 496 kts 106°
2026-05-08 22:59 49.38153 8.46621 37139 ft 496 kts 106°
2026-05-08 22:59 49.36234 8.56805 37137 ft 496 kts 107°
2026-05-08 23:00 49.34307 8.66981 37139 ft 496 kts 107°
2026-05-08 23:00 49.32369 8.77160 37132 ft 496 kts 107°
2026-05-08 23:01 49.30424 8.87322 37127 ft 496 kts 107°
2026-05-08 23:01 49.28469 8.97484 37123 ft 496 kts 107°
2026-05-08 23:02 49.26484 9.07742 37122 ft 496 kts 107°
2026-05-08 23:02 49.24542 9.17722 37123 ft 496 kts 107°
2026-05-08 23:03 49.22539 9.27963 37124 ft 496 kts 107°
2026-05-08 23:03 49.20552 9.38076 37130 ft 496 kts 107°
2026-05-08 23:04 49.18532 9.48298 37132 ft 495 kts 107°
2026-05-08 23:04 49.16527 9.58385 37140 ft 495 kts 108°
2026-05-08 23:05 49.14510 9.68481 37142 ft 496 kts 108°
2026-05-08 23:05 49.12489 9.78552 37141 ft 495 kts 108°
2026-05-08 23:06 49.10456 9.88624 37141 ft 495 kts 108°
2026-05-08 23:06 49.08260 9.98597 37144 ft 496 kts 114°
2026-05-08 23:07 49.05089 10.07949 37139 ft 495 kts 124°
2026-05-08 23:07 49.00926 10.16264 37152 ft 492 kts 134°
2026-05-08 23:08 48.96153 10.23316 37150 ft 490 kts 140°
2026-05-08 23:08 48.91119 10.30369 37168 ft 490 kts 140°
2026-05-08 23:09 48.86070 10.37450 37160 ft 491 kts 139°
2026-05-08 23:09 48.81190 10.44636 37158 ft 493 kts 136°
2026-05-08 23:10 48.76481 10.52196 37151 ft 494 kts 136°
2026-05-08 23:10 48.71747 10.59770 37154 ft 494 kts 136°
2026-05-08 23:11 48.66979 10.67360 37143 ft 494 kts 136°
2026-05-08 23:11 48.62609 10.75310 37133 ft 498 kts 124°
2026-05-08 23:12 48.59646 10.84808 37126 ft 501 kts 109°
2026-05-08 23:12 48.58277 10.95138 37121 ft 502 kts 94°
2026-05-08 23:13 48.57930 11.05702 37116 ft 502 kts 96°
2026-05-08 23:13 48.56817 11.16107 37117 ft 501 kts 104°
2026-05-08 23:14 48.54849 11.26210 37114 ft 500 kts 110°
2026-05-08 23:14 48.52493 11.36119 37114 ft 499 kts 111°
2026-05-08 23:15 48.50147 11.45983 37102 ft 501 kts 111°
2026-05-08 23:15 48.47791 11.55920 37113 ft 502 kts 111°
2026-05-08 23:16 48.45426 11.65847 37115 ft 502 kts 111°
2026-05-08 23:16 48.43039 11.75755 37114 ft 501 kts 111°
2026-05-08 23:17 48.40655 11.85604 37114 ft 500 kts 111°
2026-05-08 23:17 48.38266 11.95437 37116 ft 500 kts 111°
2026-05-08 23:18 48.35880 12.05216 37116 ft 500 kts 111°
2026-05-08 23:18 48.33471 12.15048 37109 ft 499 kts 112°
2026-05-08 23:19 48.31066 12.24822 37120 ft 498 kts 112°
2026-05-08 23:19 48.28652 12.34581 37118 ft 498 kts 112°
2026-05-08 23:20 48.26223 12.44363 37112 ft 498 kts 112°
2026-05-08 23:20 48.23793 12.54103 37114 ft 498 kts 112°
2026-05-08 23:21 48.21356 12.63853 37116 ft 498 kts 112°
2026-05-08 23:21 48.18918 12.73584 37115 ft 498 kts 112°
2026-05-08 23:22 48.16481 12.83301 37112 ft 498 kts 111°
2026-05-08 23:22 48.14257 12.93163 37107 ft 499 kts 110°
2026-05-08 23:23 48.12058 13.03040 37112 ft 499 kts 110°
2026-05-08 23:23 48.09849 13.12891 37115 ft 499 kts 110°
2026-05-08 23:24 48.07630 13.22733 37116 ft 499 kts 110°
2026-05-08 23:24 48.05391 13.32613 37109 ft 498 kts 110°
2026-05-08 23:25 48.03160 13.42412 37114 ft 497 kts 110°
2026-05-08 23:25 48.00921 13.52195 37114 ft 497 kts 110°
2026-05-08 23:26 47.98679 13.61952 37116 ft 497 kts 110°
2026-05-08 23:26 47.96439 13.71652 37108 ft 497 kts 110°
2026-05-08 23:27 47.94160 13.81482 37114 ft 497 kts 111°
2026-05-08 23:27 47.91894 13.91204 37111 ft 497 kts 111°
2026-05-08 23:28 47.89613 14.00950 37111 ft 496 kts 111°
2026-05-08 23:28 47.87344 14.10601 37106 ft 496 kts 111°
2026-05-08 23:29 47.85052 14.20320 37110 ft 496 kts 111°
2026-05-08 23:29 47.82753 14.30009 37115 ft 496 kts 111°
2026-05-08 23:30 47.80447 14.39688 37112 ft 496 kts 111°
2026-05-08 23:30 47.78132 14.49361 37112 ft 495 kts 111°
2026-05-08 23:31 47.75815 14.59004 37116 ft 495 kts 111°
2026-05-08 23:31 47.73486 14.68650 37119 ft 494 kts 111°
2026-05-08 23:32 47.71154 14.78270 37129 ft 495 kts 112°
2026-05-08 23:32 47.68810 14.87899 37131 ft 494 kts 112°
2026-05-08 23:33 47.66462 14.97506 37118 ft 495 kts 112°
2026-05-08 23:33 47.64102 15.07107 37127 ft 494 kts 112°
2026-05-08 23:34 47.61753 15.16631 37134 ft 495 kts 112°
2026-05-08 23:34 47.59362 15.26285 37131 ft 494 kts 112°
2026-05-08 23:35 47.57012 15.35744 37131 ft 493 kts 112°
2026-05-08 23:35 47.54629 15.45279 37131 ft 493 kts 112°
2026-05-08 23:36 47.52238 15.54805 37135 ft 493 kts 112°
2026-05-08 23:36 47.50228 15.62786 37117 ft 493 kts 113°
2026-05-08 23:37 47.47835 15.72261 37124 ft 490 kts 113°
2026-05-08 23:37 47.45451 15.81645 37129 ft 490 kts 113°
2026-05-08 23:38 47.43042 15.91095 37126 ft 490 kts 113°
2026-05-08 23:38 47.40625 16.00538 37118 ft 490 kts 113°
2026-05-08 23:39 47.38214 16.09923 37133 ft 487 kts 113°
2026-05-08 23:39 47.35738 16.19513 37120 ft 487 kts 114°
2026-05-08 23:40 47.33313 16.28869 37131 ft 487 kts 114°
2026-05-08 23:40 47.30885 16.38202 37135 ft 487 kts 114°
2026-05-08 23:41 47.28448 16.47527 37114 ft 487 kts 113°
2026-05-08 23:41 47.26107 16.56909 37114 ft 488 kts 112°
2026-05-08 23:42 47.23795 16.66325 37113 ft 488 kts 112°
2026-05-08 23:42 47.21473 16.75712 37112 ft 488 kts 112°
2026-05-08 23:43 47.19140 16.85081 37119 ft 487 kts 112°
2026-05-08 23:43 47.16793 16.94454 37110 ft 487 kts 113°
2026-05-08 23:44 47.14438 17.03819 37114 ft 487 kts 113°
2026-05-08 23:44 47.12079 17.13161 37102 ft 487 kts 113°
2026-05-08 23:45 47.09724 17.22449 37111 ft 487 kts 113°
2026-05-08 23:45 47.07349 17.31777 37112 ft 487 kts 113°
2026-05-08 23:46 47.04967 17.41097 37107 ft 488 kts 113°
2026-05-08 23:46 47.02576 17.50409 37092 ft 487 kts 113°
2026-05-08 23:47 47.00175 17.59724 37098 ft 487 kts 113°
2026-05-08 23:47 46.97769 17.69025 37101 ft 487 kts 113°
2026-05-08 23:48 46.95358 17.78305 37100 ft 487 kts 113°
2026-05-08 23:48 46.92940 17.87575 37083 ft 487 kts 113°
2026-05-08 23:49 46.90514 17.96838 37095 ft 486 kts 113°
2026-05-08 23:49 46.88083 18.06084 37092 ft 486 kts 114°
2026-05-08 23:50 46.85649 18.15304 37087 ft 486 kts 114°
2026-05-08 23:50 46.83205 18.24530 37074 ft 486 kts 114°
2026-05-08 23:51 46.80758 18.33726 37083 ft 485 kts 114°
2026-05-08 23:51 46.78301 18.42923 37082 ft 485 kts 114°
2026-05-08 23:52 46.75858 18.52035 37079 ft 485 kts 114°
2026-05-08 23:52 46.73391 18.61199 37069 ft 485 kts 114°
2026-05-08 23:53 46.70919 18.70348 37076 ft 484 kts 114°
2026-05-08 23:53 46.68440 18.79484 37077 ft 484 kts 114°
2026-05-08 23:54 46.65951 18.88628 37071 ft 484 kts 114°
2026-05-08 23:55 46.62206 19.02313 37068 ft 485 kts 114°
2026-05-08 23:55 46.59701 19.11427 37060 ft 484 kts 114°
2026-05-08 23:56 46.57190 19.20525 37063 ft 484 kts 114°
2026-05-08 23:56 46.54668 19.29626 37061 ft 484 kts 115°
2026-05-08 23:57 46.52142 19.38714 37067 ft 485 kts 115°
2026-05-08 23:57 46.49603 19.47807 37065 ft 485 kts 115°
2026-05-08 23:58 46.47063 19.56875 37054 ft 485 kts 115°
2026-05-08 23:58 46.44523 19.65905 37065 ft 485 kts 115°
2026-05-08 23:59 46.41962 19.74980 37062 ft 485 kts 115°
2026-05-08 23:59 46.39393 19.84015 37064 ft 484 kts 116°
2026-05-09 00:00 46.36696 19.92957 37064 ft 484 kts 117°
2026-05-09 00:00 46.33961 20.01885 37056 ft 484 kts 117°
2026-05-09 00:01 46.31228 20.10811 37052 ft 484 kts 117°
2026-05-09 00:01 46.28498 20.19716 37051 ft 484 kts 117°
2026-05-09 00:02 46.25763 20.28614 37056 ft 484 kts 117°
2026-05-09 00:02 46.23022 20.37501 37044 ft 483 kts 117°
2026-05-09 00:03 46.20279 20.46368 37051 ft 482 kts 117°
2026-05-09 00:03 46.17535 20.55202 37057 ft 482 kts 117°
2026-05-09 00:04 46.14786 20.64023 37054 ft 482 kts 117°
2026-05-09 00:04 46.12048 20.72777 37035 ft 481 kts 117°
2026-05-09 00:05 46.09289 20.81574 37044 ft 481 kts 117°
2026-05-09 00:05 46.06518 20.90374 37041 ft 481 kts 117°
2026-05-09 00:06 46.03745 20.99148 37044 ft 481 kts 117°
2026-05-09 00:06 46.00952 21.07955 37031 ft 481 kts 117°
2026-05-09 00:07 45.98163 21.16723 37040 ft 481 kts 117°
2026-05-09 00:07 45.95372 21.25466 37037 ft 481 kts 117°
2026-05-09 00:08 45.92571 21.34213 37031 ft 481 kts 117°
2026-05-09 00:08 45.89766 21.42937 37026 ft 481 kts 117°
2026-05-09 00:09 45.86955 21.51654 37037 ft 481 kts 117°
2026-05-09 00:09 45.84136 21.60367 37050 ft 481 kts 117°
2026-05-09 00:10 45.81312 21.69070 37050 ft 481 kts 117°
2026-05-09 00:10 45.78475 21.77777 37046 ft 481 kts 117°
2026-05-09 00:11 45.75638 21.86457 37046 ft 481 kts 117°
2026-05-09 00:11 45.72796 21.95128 37044 ft 481 kts 118°
2026-05-09 00:12 45.69938 22.03816 37048 ft 481 kts 118°
2026-05-09 00:12 45.67081 22.12463 37046 ft 480 kts 117°
2026-05-09 00:13 45.64223 22.21098 37046 ft 480 kts 118°
2026-05-09 00:13 45.61358 22.29724 37055 ft 480 kts 118°
2026-05-09 00:14 45.58480 22.38359 37060 ft 480 kts 118°
2026-05-09 00:14 45.55604 22.46949 37059 ft 478 kts 117°
2026-05-09 00:15 45.52733 22.55512 37057 ft 478 kts 118°
2026-05-09 00:15 45.49834 22.64050 37064 ft 478 kts 118°
2026-05-09 00:16 45.46913 22.72495 37051 ft 478 kts 118°
2026-05-09 00:16 45.43971 22.80973 37058 ft 475 kts 118°
2026-05-09 00:17 45.41039 22.89412 37060 ft 475 kts 118°
2026-05-09 00:17 45.38103 22.97837 37060 ft 475 kts 118°
2026-05-09 00:18 45.35168 23.06237 37053 ft 475 kts 118°
2026-05-09 00:18 45.32220 23.14642 37057 ft 474 kts 118°
2026-05-09 00:19 45.29275 23.23020 37050 ft 473 kts 118°
2026-05-09 00:19 45.26324 23.31388 37048 ft 473 kts 118°
2026-05-09 00:20 45.23367 23.39742 37045 ft 473 kts 118°
2026-05-09 00:20 45.20400 23.48105 37039 ft 473 kts 118°
2026-05-09 00:21 45.17431 23.56444 37043 ft 473 kts 118°
2026-05-09 00:21 45.14455 23.64775 37043 ft 473 kts 119°
2026-05-09 00:22 45.11493 23.73039 37033 ft 473 kts 118°
2026-05-09 00:22 45.08509 23.81344 37035 ft 473 kts 118°
2026-05-09 00:23 45.05515 23.89655 37034 ft 473 kts 119°
2026-05-09 00:23 45.02519 23.97944 37037 ft 473 kts 119°
2026-05-09 00:24 44.99526 24.06189 37035 ft 473 kts 118°
2026-05-09 00:24 44.96514 24.14471 37033 ft 473 kts 118°
2026-05-09 00:25 44.93498 24.22741 37031 ft 473 kts 118°
2026-05-09 00:25 44.90476 24.31002 37031 ft 473 kts 119°
2026-05-09 00:26 44.87446 24.39256 37041 ft 472 kts 119°
2026-05-09 00:26 44.84935 24.46080 37022 ft 472 kts 119°
2026-05-09 00:27 44.81900 24.54303 37025 ft 472 kts 119°
2026-05-09 00:27 44.78865 24.62502 37037 ft 472 kts 119°
2026-05-09 00:28 44.75824 24.70692 37032 ft 472 kts 119°
2026-05-09 00:28 44.72772 24.78887 37035 ft 472 kts 119°
2026-05-09 00:29 44.69720 24.87060 37030 ft 472 kts 119°
2026-05-09 00:29 44.66662 24.95224 37025 ft 472 kts 119°
2026-05-09 00:30 44.63605 25.03361 37029 ft 472 kts 119°
2026-05-09 00:30 44.60528 25.11526 37027 ft 472 kts 119°
2026-05-09 00:31 44.57451 25.19670 37025 ft 472 kts 119°
2026-05-09 00:31 44.54368 25.27805 37023 ft 472 kts 119°
2026-05-09 00:32 44.51281 25.35927 37021 ft 472 kts 119°
2026-05-09 00:32 44.48183 25.44053 37022 ft 472 kts 119°
2026-05-09 00:33 44.45256 25.52289 37027 ft 472 kts 117°
2026-05-09 00:33 44.42371 25.60551 37019 ft 472 kts 117°
2026-05-09 00:34 44.39472 25.68829 37021 ft 473 kts 117°
2026-05-09 00:34 44.36589 25.77031 37025 ft 473 kts 117°
2026-05-09 00:35 44.33680 25.85278 37031 ft 473 kts 117°
2026-05-09 00:35 44.30762 25.93529 37027 ft 472 kts 117°
2026-05-09 00:36 44.27848 26.01740 37021 ft 472 kts 117°
2026-05-09 00:36 44.24924 26.09956 37022 ft 472 kts 117°
2026-05-09 00:37 44.21994 26.18163 37019 ft 472 kts 117°
2026-05-09 00:37 44.19052 26.26378 37023 ft 473 kts 117°
2026-05-09 00:38 44.16109 26.34573 37022 ft 473 kts 118°
2026-05-09 00:38 44.13160 26.42760 37026 ft 473 kts 118°
2026-05-09 00:39 44.10205 26.50939 37028 ft 472 kts 118°
2026-05-09 00:39 44.07240 26.59121 37026 ft 472 kts 118°
2026-05-09 00:40 44.04279 26.67270 37024 ft 472 kts 118°
2026-05-09 00:40 44.01306 26.75424 37026 ft 473 kts 118°
2026-05-09 00:41 43.96849 26.87606 37022 ft 473 kts 118°
2026-05-09 00:41 43.93841 26.95797 37030 ft 473 kts 118°
2026-05-09 00:42 43.90873 27.03858 37036 ft 473 kts 118°
2026-05-09 00:42 43.87869 27.11990 37031 ft 472 kts 118°
2026-05-09 00:43 43.84866 27.20096 37032 ft 472 kts 118°
2026-05-09 00:43 43.81858 27.28192 37037 ft 472 kts 118°
2026-05-09 00:44 43.78840 27.36294 37035 ft 472 kts 118°
2026-05-09 00:44 43.75819 27.44379 37038 ft 473 kts 118°
2026-05-09 00:45 43.72787 27.52470 37042 ft 473 kts 118°
2026-05-09 00:45 43.69748 27.60555 37040 ft 473 kts 118°
2026-05-09 00:46 43.66698 27.68644 37038 ft 473 kts 118°
2026-05-09 00:46 43.63648 27.76714 37048 ft 474 kts 118°
2026-05-09 00:47 43.60592 27.84775 37046 ft 474 kts 119°
2026-05-09 00:47 43.57530 27.92828 37048 ft 474 kts 119°
2026-05-09 00:48 43.54458 28.00886 37043 ft 474 kts 119°
2026-05-09 00:48 43.51378 28.08939 37047 ft 474 kts 119°
2026-05-09 00:49 43.48299 28.16970 37054 ft 474 kts 119°
2026-05-09 00:49 43.45213 28.24996 37057 ft 474 kts 119°
2026-05-09 00:50 43.42123 28.33010 37066 ft 474 kts 119°
2026-05-09 00:50 43.39023 28.41028 37064 ft 474 kts 119°
2026-05-09 00:51 43.35922 28.49023 37071 ft 474 kts 119°
2026-05-09 00:51 43.32976 28.57128 37063 ft 474 kts 115°
2026-05-09 00:52 43.30537 28.65564 37066 ft 475 kts 112°
2026-05-09 00:52 43.28159 28.74050 37070 ft 475 kts 112°
2026-05-09 00:53 43.25775 28.82515 37074 ft 475 kts 112°
2026-05-09 00:53 43.23383 28.90970 37072 ft 475 kts 112°
2026-05-09 00:54 43.20982 28.99411 37076 ft 475 kts 112°
2026-05-09 00:54 43.18591 29.07790 37079 ft 475 kts 112°
2026-05-09 00:55 43.16179 29.16217 37076 ft 475 kts 112°
2026-05-09 00:55 43.13758 29.24638 37073 ft 475 kts 113°
2026-05-09 00:56 43.11327 29.33068 37086 ft 475 kts 113°
2026-05-09 00:56 43.08894 29.41476 37078 ft 475 kts 113°
2026-05-09 00:57 43.06455 29.49877 37084 ft 474 kts 113°
2026-05-09 00:57 43.04012 29.58268 37084 ft 475 kts 113°
2026-05-09 00:58 43.01561 29.66651 37083 ft 474 kts 113°
2026-05-09 00:58 42.99098 29.75059 37086 ft 475 kts 113°
2026-05-09 00:59 42.96639 29.83434 37084 ft 475 kts 113°
2026-05-09 00:59 42.94171 29.91810 37090 ft 475 kts 113°
2026-05-09 01:00 42.91712 30.00124 37088 ft 475 kts 113°
2026-05-09 01:00 42.89230 30.08485 37099 ft 475 kts 113°
2026-05-09 01:01 42.86739 30.16842 37098 ft 475 kts 113°
2026-05-09 01:01 42.84244 30.25198 37102 ft 476 kts 113°
2026-05-09 01:02 42.81738 30.33559 37101 ft 475 kts 113°
2026-05-09 01:02 42.79231 30.41900 37095 ft 475 kts 113°
2026-05-09 01:03 42.76715 30.50234 37094 ft 475 kts 113°
2026-05-09 01:03 42.74533 30.58742 37108 ft 476 kts 107°
2026-05-09 01:04 42.73053 30.67559 37106 ft 477 kts 100°
2026-05-09 01:04 42.72120 30.76515 37111 ft 478 kts 98°
2026-05-09 01:05 42.71232 30.85430 37109 ft 478 kts 98°
2026-05-09 01:06 42.69852 30.98955 37107 ft 478 kts 99°
2026-05-09 01:06 42.68928 31.07859 37109 ft 479 kts 99°
2026-05-09 01:07 42.67989 31.16828 37115 ft 479 kts 99°
2026-05-09 01:07 42.67043 31.25799 37113 ft 479 kts 99°
2026-05-09 01:08 42.66090 31.34767 37113 ft 479 kts 99°
2026-05-09 01:08 42.65125 31.43753 37117 ft 480 kts 99°
2026-05-09 01:09 42.64154 31.52747 37116 ft 482 kts 99°
2026-05-09 01:09 42.63174 31.61763 37112 ft 482 kts 99°
2026-05-09 01:10 42.62187 31.70778 37113 ft 482 kts 99°
2026-05-09 01:10 42.61192 31.79804 37113 ft 482 kts 99°
2026-05-09 01:11 42.60189 31.88819 37111 ft 483 kts 99°
2026-05-09 01:11 42.59177 31.97853 37115 ft 484 kts 99°
2026-05-09 01:12 42.58171 32.06869 37114 ft 484 kts 99°
2026-05-09 01:12 42.57147 32.15901 37113 ft 484 kts 99°
2026-05-09 01:13 42.56107 32.24952 37113 ft 485 kts 99°
2026-05-09 01:13 42.55061 32.33993 37114 ft 486 kts 99°
2026-05-09 01:14 42.54010 32.43019 37117 ft 486 kts 99°
2026-05-09 01:14 42.53126 32.50561 37114 ft 486 kts 99°
2026-05-09 01:15 42.52057 32.59633 37110 ft 487 kts 99°
2026-05-09 01:15 42.50981 32.68721 37112 ft 488 kts 99°
2026-05-09 01:16 42.49719 32.79291 37111 ft 488 kts 99°
2026-05-09 01:16 42.48802 32.86910 37112 ft 488 kts 99°
2026-05-09 01:17 42.47152 33.00520 37113 ft 488 kts 99°
2026-05-09 01:17 42.46041 33.09596 37112 ft 488 kts 99°
2026-05-09 01:18 42.44930 33.18607 37112 ft 488 kts 99°
2026-05-09 01:18 42.43801 33.27691 37107 ft 488 kts 99°
2026-05-09 01:19 42.42663 33.36775 37110 ft 489 kts 99°
2026-05-09 01:19 42.41518 33.45865 37117 ft 489 kts 99°
2026-05-09 01:20 42.40366 33.54955 37110 ft 490 kts 99°
2026-05-09 01:20 42.39208 33.64058 37110 ft 490 kts 99°
2026-05-09 01:21 42.38041 33.73158 37110 ft 491 kts 99°
2026-05-09 01:21 42.36867 33.82264 37109 ft 491 kts 99°
2026-05-09 01:22 42.35684 33.91368 37109 ft 491 kts 99°
2026-05-09 01:22 42.34504 34.00408 37106 ft 491 kts 99°
2026-05-09 01:23 42.33308 34.09528 37109 ft 493 kts 99°
2026-05-09 01:23 42.32105 34.18652 37109 ft 493 kts 99°
2026-05-09 01:24 42.30895 34.27774 37111 ft 493 kts 99°
2026-05-09 01:24 42.29673 34.36907 37107 ft 493 kts 99°
2026-05-09 01:25 42.28443 34.46040 37118 ft 494 kts 99°
2026-05-09 01:25 42.27201 34.55195 37111 ft 494 kts 99°
2026-05-09 01:26 42.25954 34.64353 37112 ft 494 kts 99°
2026-05-09 01:26 42.24699 34.73492 37111 ft 495 kts 99°
2026-05-09 01:27 42.23443 34.82584 37115 ft 496 kts 99°
2026-05-09 01:27 42.22167 34.91737 37116 ft 496 kts 99°
2026-05-09 01:28 42.20879 35.00914 37117 ft 496 kts 99°
2026-05-09 01:28 42.19589 35.10061 37107 ft 497 kts 99°
2026-05-09 01:29 42.18290 35.19225 37112 ft 497 kts 99°
2026-05-09 01:29 42.16983 35.28387 37122 ft 497 kts 99°
2026-05-09 01:30 42.15667 35.37559 37113 ft 497 kts 99°
2026-05-09 01:30 42.14344 35.46717 37133 ft 498 kts 99°
2026-05-09 01:31 42.13013 35.55886 37134 ft 498 kts 99°
2026-05-09 01:31 42.11677 35.65053 37130 ft 498 kts 99°
2026-05-09 01:32 42.10331 35.74232 37129 ft 498 kts 99°
2026-05-09 01:32 42.08979 35.83394 37132 ft 499 kts 99°
2026-05-09 01:33 42.07620 35.92558 37141 ft 499 kts 100°
2026-05-09 01:33 42.06261 36.01670 37134 ft 498 kts 100°
2026-05-09 01:34 42.04887 36.10825 37144 ft 499 kts 100°
2026-05-09 01:34 42.03502 36.19997 37144 ft 499 kts 100°
2026-05-09 01:35 42.02113 36.29156 37143 ft 499 kts 100°
2026-05-09 01:35 42.00713 36.38328 37141 ft 499 kts 100°
2026-05-09 01:36 41.99311 36.47460 37169 ft 499 kts 100°
2026-05-09 01:36 41.97901 36.56592 37152 ft 498 kts 100°
2026-05-09 01:37 41.96487 36.65709 37150 ft 498 kts 100°
2026-05-09 01:37 41.95063 36.74836 37150 ft 498 kts 100°
2026-05-09 01:38 41.93634 36.83944 37152 ft 498 kts 100°
2026-05-09 01:38 41.92198 36.93050 37154 ft 498 kts 100°
2026-05-09 01:39 41.90865 37.02193 37155 ft 497 kts 96°
2026-05-09 01:39 41.90231 37.11432 37156 ft 495 kts 89°
2026-05-09 01:40 41.90096 37.20675 37162 ft 495 kts 88°
2026-05-09 01:40 41.89981 37.29921 37168 ft 495 kts 89°
2026-05-09 01:41 41.89847 37.39095 37160 ft 494 kts 89°
2026-05-09 01:41 41.89696 37.48326 37162 ft 494 kts 89°
2026-05-09 01:42 41.89535 37.57570 37162 ft 494 kts 89°
2026-05-09 01:42 41.89366 37.66797 37166 ft 494 kts 89°
2026-05-09 01:43 41.89191 37.76026 37167 ft 494 kts 89°
2026-05-09 01:43 41.89007 37.85256 37167 ft 494 kts 89°
2026-05-09 01:44 41.88817 37.94498 37171 ft 493 kts 89°
2026-05-09 01:44 41.88618 38.03728 37167 ft 493 kts 89°
2026-05-09 01:45 41.88412 38.12943 37171 ft 493 kts 89°
2026-05-09 01:45 41.88199 38.22159 37171 ft 493 kts 89°
2026-05-09 01:46 41.87979 38.31389 37171 ft 493 kts 89°
2026-05-09 01:46 41.87752 38.40604 37167 ft 493 kts 89°
2026-05-09 01:47 41.87517 38.49821 37170 ft 494 kts 90°
2026-05-09 01:47 41.87274 38.59042 37166 ft 494 kts 90°
2026-05-09 01:48 41.87024 38.68281 37174 ft 494 kts 90°
2026-05-09 01:48 41.86767 38.77503 37170 ft 494 kts 90°
2026-05-09 01:49 41.86502 38.86725 37175 ft 494 kts 90°
2026-05-09 01:49 41.86232 38.95900 37178 ft 494 kts 90°
2026-05-09 01:50 41.85953 39.05107 37185 ft 494 kts 90°
2026-05-09 01:50 41.85667 39.14319 37175 ft 493 kts 90°
2026-05-09 01:51 41.85373 39.23541 37171 ft 494 kts 90°
2026-05-09 01:51 41.85072 39.32750 37175 ft 493 kts 90°
2026-05-09 01:52 41.84765 39.41955 37176 ft 493 kts 90°
2026-05-09 01:52 41.84448 39.51160 37171 ft 493 kts 90°
2026-05-09 01:53 41.84124 39.60380 37175 ft 493 kts 90°
2026-05-09 01:53 41.83794 39.69578 37186 ft 492 kts 90°
2026-05-09 01:54 41.83457 39.78751 37176 ft 492 kts 91°
2026-05-09 01:54 41.83113 39.87940 37172 ft 492 kts 91°
2026-05-09 01:55 41.82763 39.97111 37171 ft 492 kts 91°
2026-05-09 01:55 41.82408 40.06245 37169 ft 492 kts 91°
2026-05-09 01:56 41.82041 40.15430 37172 ft 492 kts 91°
2026-05-09 01:56 41.81666 40.24593 37181 ft 491 kts 91°
2026-05-09 01:57 41.81286 40.33726 37174 ft 489 kts 91°
2026-05-09 01:57 41.80899 40.42855 37173 ft 489 kts 91°
2026-05-09 01:58 41.80506 40.51969 37171 ft 489 kts 91°
2026-05-09 01:58 41.80107 40.61065 37171 ft 489 kts 91°
2026-05-09 01:59 41.79690 40.70176 37171 ft 489 kts 91°
2026-05-09 01:59 41.79243 40.79303 37169 ft 489 kts 92°
2026-05-09 02:00 41.78791 40.88402 37171 ft 488 kts 92°
2026-05-09 02:00 41.78333 40.97471 37166 ft 487 kts 92°
2026-05-09 02:01 41.77870 41.06540 37164 ft 486 kts 92°
2026-05-09 02:01 41.77401 41.15604 37159 ft 486 kts 92°
2026-05-09 02:02 41.76926 41.24652 37161 ft 486 kts 92°
2026-05-09 02:02 41.76447 41.33637 37160 ft 486 kts 92°
2026-05-09 02:03 41.75956 41.42694 37180 ft 486 kts 92°
2026-05-09 02:03 41.75461 41.51711 37168 ft 484 kts 92°
2026-05-09 02:04 41.74959 41.60719 37167 ft 484 kts 92°
2026-05-09 02:04 41.74451 41.69725 37166 ft 484 kts 92°
2026-05-09 02:05 41.73935 41.78745 37166 ft 484 kts 92°
2026-05-09 02:05 41.73413 41.87750 37161 ft 485 kts 92°
2026-05-09 02:06 41.72884 41.96758 37171 ft 485 kts 92°
2026-05-09 02:07 41.72076 42.10247 37173 ft 484 kts 92°
2026-05-09 02:07 41.71619 42.17729 37184 ft 484 kts 92°
2026-05-09 02:08 41.71064 42.26724 37181 ft 484 kts 92°
2026-05-09 02:08 41.70502 42.35724 37195 ft 485 kts 93°
2026-05-09 02:09 41.69933 42.44720 37201 ft 485 kts 93°
2026-05-09 02:09 41.69357 42.53732 37197 ft 485 kts 93°
2026-05-09 02:10 41.68776 42.62724 37216 ft 484 kts 93°
2026-05-09 02:10 41.68187 42.71698 37207 ft 483 kts 93°
2026-05-09 02:11 41.67592 42.80667 37218 ft 483 kts 93°
2026-05-09 02:11 41.66988 42.89636 37219 ft 484 kts 93°
2026-05-09 02:12 41.66374 42.98617 37235 ft 484 kts 93°
2026-05-09 02:12 41.65756 43.07562 37237 ft 484 kts 94°
2026-05-09 02:13 41.65134 43.16472 37232 ft 484 kts 94°
2026-05-09 02:13 41.64503 43.25428 37234 ft 483 kts 94°
2026-05-09 02:14 41.63864 43.34387 37227 ft 483 kts 94°
2026-05-09 02:14 41.63219 43.43327 37244 ft 483 kts 94°
2026-05-09 02:15 41.62567 43.52274 37221 ft 483 kts 94°
2026-05-09 02:15 41.61908 43.61237 37222 ft 483 kts 94°
2026-05-09 02:16 41.61245 43.70183 37225 ft 483 kts 94°
2026-05-09 02:16 41.60577 43.79125 37221 ft 483 kts 94°
2026-05-09 02:17 41.59902 43.88054 37223 ft 482 kts 94°
2026-05-09 02:17 41.59219 43.96998 37214 ft 483 kts 94°
2026-05-09 02:18 41.58531 44.05906 37231 ft 483 kts 94°
2026-05-09 02:18 41.57833 44.14848 37232 ft 483 kts 95°
2026-05-09 02:19 41.56750 44.23714 37241 ft 484 kts 101°
2026-05-09 02:19 41.54937 44.32334 37245 ft 486 kts 107°
2026-05-09 02:20 41.52802 44.40902 37244 ft 486 kts 107°
2026-05-09 02:20 41.50658 44.49480 37235 ft 486 kts 107°
2026-05-09 02:21 41.48521 44.58044 37243 ft 486 kts 107°
2026-05-09 02:21 41.46383 44.66601 37235 ft 486 kts 107°
2026-05-09 02:22 41.44238 44.75153 37228 ft 486 kts 107°
2026-05-09 02:22 41.42087 44.83702 37228 ft 486 kts 107°
2026-05-09 02:23 41.39927 44.92265 37223 ft 487 kts 108°
2026-05-09 02:23 41.37761 45.00810 37217 ft 488 kts 108°
2026-05-09 02:24 41.35581 45.09373 37217 ft 488 kts 108°
2026-05-09 02:24 41.33389 45.17940 37217 ft 488 kts 108°
2026-05-09 02:25 41.31195 45.26496 37199 ft 489 kts 108°
2026-05-09 02:25 41.29000 45.35013 37218 ft 489 kts 108°
2026-05-09 02:26 41.26777 45.43620 37204 ft 488 kts 108°
2026-05-09 02:26 41.24562 45.52162 37202 ft 488 kts 109°
2026-05-09 02:27 41.22337 45.60714 37203 ft 489 kts 109°
2026-05-09 02:27 41.20114 45.69206 37218 ft 490 kts 109°
2026-05-09 02:28 41.17860 45.77762 37205 ft 490 kts 109°
2026-05-09 02:28 41.15606 45.86302 37204 ft 490 kts 109°
2026-05-09 02:29 41.13325 45.94909 37205 ft 491 kts 109°
2026-05-09 02:29 41.11070 46.03384 37202 ft 491 kts 109°
2026-05-09 02:30 41.08787 46.11943 37201 ft 491 kts 109°
2026-05-09 02:30 41.06501 46.20495 37208 ft 492 kts 110°
2026-05-09 02:31 41.04200 46.29053 37223 ft 493 kts 110°
2026-05-09 02:31 41.01909 46.37616 37212 ft 492 kts 110°
2026-05-09 02:32 40.99620 46.46188 37202 ft 493 kts 110°
2026-05-09 02:32 40.97317 46.54772 37220 ft 494 kts 110°
2026-05-09 02:33 40.95008 46.63340 37198 ft 494 kts 110°
2026-05-09 02:33 40.92694 46.71905 37200 ft 494 kts 110°
2026-05-09 02:34 40.90369 46.80482 37190 ft 495 kts 110°
2026-05-09 02:34 40.88030 46.89046 37188 ft 495 kts 111°
2026-05-09 02:35 40.85681 46.97602 37206 ft 495 kts 111°
2026-05-09 02:35 40.83334 47.06137 37181 ft 495 kts 111°
2026-05-09 02:36 40.80969 47.14707 37186 ft 496 kts 111°
2026-05-09 02:36 40.78586 47.23255 37190 ft 496 kts 111°
2026-05-09 02:37 40.76196 47.31795 37194 ft 495 kts 111°
2026-05-09 02:37 40.73804 47.40325 37190 ft 495 kts 112°
2026-05-09 02:38 40.71406 47.48853 37193 ft 496 kts 112°
2026-05-09 02:38 40.69000 47.57393 37194 ft 496 kts 112°
2026-05-09 02:39 40.66594 47.65913 37194 ft 496 kts 112°
2026-05-09 02:39 40.64181 47.74430 37198 ft 496 kts 112°
2026-05-09 02:40 40.61787 47.82886 37200 ft 496 kts 111°
2026-05-09 02:40 40.59865 47.91638 37195 ft 497 kts 103°
2026-05-09 02:41 40.58808 48.00676 37180 ft 500 kts 96°
2026-05-09 02:41 40.58641 48.09854 37191 ft 503 kts 89°
2026-05-09 02:42 40.58965 48.19064 37196 ft 504 kts 89°
2026-05-09 02:42 40.59232 48.28297 37195 ft 503 kts 89°
2026-05-09 02:43 40.59465 48.37516 37197 ft 503 kts 89°
2026-05-09 02:43 40.59691 48.46735 37189 ft 504 kts 89°
2026-05-09 02:44 40.59915 48.55980 37188 ft 505 kts 90°
2026-05-09 02:44 40.60128 48.65235 37198 ft 505 kts 90°
2026-05-09 02:45 40.60334 48.74505 37196 ft 505 kts 90°
2026-05-09 02:45 40.60533 48.83761 37187 ft 505 kts 90°
2026-05-09 02:46 40.60725 48.92956 37185 ft 505 kts 90°
2026-05-09 02:46 40.60915 49.02239 37164 ft 506 kts 91°
2026-05-09 02:47 40.61091 49.11513 37174 ft 507 kts 91°
2026-05-09 02:47 40.61312 49.20794 37158 ft 507 kts 88°
2026-05-09 02:48 40.61830 49.30087 37156 ft 508 kts 88°
2026-05-09 02:48 40.62379 49.39366 37153 ft 508 kts 88°
2026-05-09 02:49 40.62912 49.48649 37146 ft 508 kts 88°
2026-05-09 02:49 40.63436 49.57938 37138 ft 509 kts 88°
2026-05-09 02:50 40.63950 49.67264 37139 ft 511 kts 89°
2026-05-09 02:50 40.64456 49.76604 37141 ft 511 kts 89°
2026-05-09 02:51 40.64955 49.85949 37144 ft 511 kts 89°
2026-05-09 02:51 40.65448 49.95297 37143 ft 511 kts 89°
2026-05-09 02:52 40.65933 50.04644 37144 ft 511 kts 89°
2026-05-09 02:52 40.66413 50.13995 37116 ft 512 kts 89°
2026-05-09 02:53 40.66887 50.23391 37139 ft 514 kts 90°
2026-05-09 02:53 40.67351 50.32806 37146 ft 514 kts 90°
2026-05-09 02:54 40.67808 50.42223 37147 ft 514 kts 90°
2026-05-09 02:54 40.68257 50.51654 37148 ft 514 kts 90°
2026-05-09 02:55 40.68696 50.61070 37157 ft 514 kts 90°
2026-05-09 02:55 40.69129 50.70487 37136 ft 514 kts 90°
2026-05-09 02:56 40.69554 50.79861 37151 ft 516 kts 90°
2026-05-09 02:56 40.69974 50.89330 37159 ft 516 kts 90°
2026-05-09 02:57 40.70387 50.98795 37165 ft 517 kts 90°
2026-05-09 02:57 40.70728 51.06751 37165 ft 517 kts 90°
2026-05-09 02:58 40.71124 51.16157 37168 ft 517 kts 90°
2026-05-09 02:58 40.71515 51.25627 37166 ft 517 kts 90°
2026-05-09 02:59 40.71904 51.35120 37162 ft 518 kts 91°
2026-05-09 02:59 40.72284 51.44619 37167 ft 519 kts 90°
2026-05-09 03:00 40.73156 51.54103 37171 ft 523 kts 83°
2026-05-09 03:00 40.74664 51.63505 37169 ft 524 kts 81°
2026-05-09 03:01 40.76251 51.72915 37171 ft 524 kts 81°
2026-05-09 03:01 40.77807 51.82324 37167 ft 524 kts 81°
2026-05-09 03:02 40.79343 51.91740 37173 ft 524 kts 81°
2026-05-09 03:02 40.80872 52.01191 37156 ft 524 kts 81°
2026-05-09 03:03 40.82392 52.10634 37138 ft 526 kts 82°
2026-05-09 03:03 40.83909 52.20110 37161 ft 527 kts 82°
2026-05-09 03:04 40.85422 52.29614 37169 ft 527 kts 82°
2026-05-09 03:04 40.86926 52.39110 37162 ft 528 kts 82°
2026-05-09 03:05 40.88423 52.48618 37167 ft 528 kts 82°
2026-05-09 03:05 40.89862 52.58075 37169 ft 527 kts 84°
2026-05-09 03:06 40.90670 52.67667 37166 ft 523 kts 91°
2026-05-09 03:06 40.91067 52.77294 37165 ft 523 kts 91°
2026-05-09 03:07 40.91448 52.86908 37178 ft 523 kts 91°
2026-05-09 03:07 40.91848 52.96550 37160 ft 524 kts 91°
2026-05-09 03:08 40.92243 53.06205 37180 ft 524 kts 92°
2026-05-09 03:08 40.92628 53.15851 37175 ft 525 kts 92°
2026-05-09 03:09 40.92991 53.25497 37173 ft 525 kts 92°
2026-05-09 03:09 40.93347 53.35143 37171 ft 524 kts 92°
2026-05-09 03:10 40.93698 53.44803 37161 ft 524 kts 92°
2026-05-09 03:10 40.94042 53.54445 37166 ft 524 kts 92°
2026-05-09 03:11 40.94377 53.64088 37166 ft 524 kts 92°
2026-05-09 03:11 40.94702 53.73666 37167 ft 524 kts 92°
2026-05-09 03:12 40.95021 53.83323 37167 ft 524 kts 92°
2026-05-09 03:12 40.95333 53.92971 37164 ft 525 kts 93°
2026-05-09 03:13 40.95785 54.07496 37164 ft 525 kts 93°
2026-05-09 03:13 40.96078 54.17162 37155 ft 526 kts 93°
2026-05-09 03:14 40.96361 54.26861 37165 ft 526 kts 93°
2026-05-09 03:14 40.96636 54.36548 37166 ft 526 kts 93°
2026-05-09 03:15 40.96904 54.46232 37166 ft 526 kts 93°
2026-05-09 03:15 40.97163 54.55915 37167 ft 526 kts 94°
2026-05-09 03:16 40.97416 54.65602 37156 ft 527 kts 94°
2026-05-09 03:16 40.97661 54.75329 37139 ft 528 kts 94°
2026-05-09 03:17 40.97898 54.85075 37161 ft 530 kts 94°
2026-05-09 03:17 40.98120 54.94767 37166 ft 530 kts 94°
2026-05-09 03:18 40.98328 55.04525 37156 ft 530 kts 94°
2026-05-09 03:18 40.98529 55.14294 37166 ft 530 kts 94°
2026-05-09 03:19 40.98723 55.24066 37166 ft 530 kts 94°
2026-05-09 03:19 40.98910 55.33855 37163 ft 531 kts 94°
2026-05-09 03:20 40.99090 55.43648 37146 ft 533 kts 94°
2026-05-09 03:20 40.99260 55.53471 37156 ft 533 kts 95°
2026-05-09 03:21 40.99424 55.63294 37159 ft 533 kts 95°
2026-05-09 03:21 40.99579 55.73132 37153 ft 533 kts 95°
2026-05-09 03:22 40.99729 55.82955 37150 ft 533 kts 95°
2026-05-09 03:22 40.99887 55.92788 37147 ft 534 kts 95°
2026-05-09 03:23 41.00040 56.02593 37139 ft 535 kts 95°
2026-05-09 03:23 41.00182 56.12479 37138 ft 536 kts 95°
2026-05-09 03:24 41.00316 56.22354 37128 ft 536 kts 95°
2026-05-09 03:24 41.00443 56.32251 37143 ft 537 kts 95°
2026-05-09 03:25 41.00559 56.42149 37141 ft 537 kts 95°
2026-05-09 03:25 41.00874 56.52080 37142 ft 541 kts 90°
2026-05-09 03:26 41.01923 56.62007 37139 ft 545 kts 86°
2026-05-09 03:26 41.03152 56.71965 37123 ft 548 kts 86°
2026-05-09 03:27 41.04362 56.81953 37139 ft 549 kts 86°
2026-05-09 03:27 41.05546 56.91964 37131 ft 548 kts 86°
2026-05-09 03:28 41.06714 57.01993 37138 ft 550 kts 86°
2026-05-09 03:28 41.07867 57.11956 37137 ft 550 kts 86°
2026-05-09 03:29 41.09019 57.21989 37136 ft 550 kts 86°
2026-05-09 03:29 41.10163 57.32044 37128 ft 551 kts 86°
2026-05-09 03:30 41.11300 57.42103 37126 ft 551 kts 86°
2026-05-09 03:30 41.12429 57.52166 37120 ft 551 kts 86°
2026-05-09 03:31 41.13548 57.62230 37083 ft 551 kts 86°
2026-05-09 03:31 41.14658 57.72319 37111 ft 552 kts 86°
2026-05-09 03:32 41.15767 57.82435 37112 ft 552 kts 86°
2026-05-09 03:32 41.16864 57.92535 37108 ft 552 kts 86°
2026-05-09 03:33 41.17954 58.02653 37105 ft 552 kts 86°
2026-05-09 03:33 41.19031 58.12774 37105 ft 552 kts 86°
2026-05-09 03:34 41.20097 58.22878 37107 ft 552 kts 87°
2026-05-09 03:34 41.21156 58.33002 37095 ft 553 kts 86°
2026-05-09 03:35 41.22208 58.43138 37101 ft 553 kts 86°
2026-05-09 03:35 41.23255 58.53280 37099 ft 553 kts 86°
2026-05-09 03:36 41.24293 58.63451 37088 ft 555 kts 86°
2026-05-09 03:36 41.25323 58.73643 37086 ft 557 kts 86°
2026-05-09 03:37 41.26343 58.83789 37092 ft 557 kts 86°
2026-05-09 03:37 41.27362 58.94026 37085 ft 557 kts 86°
2026-05-09 03:38 41.28367 59.04232 37086 ft 557 kts 86°
2026-05-09 03:38 41.29365 59.14465 37082 ft 557 kts 86°
2026-05-09 03:39 41.30356 59.24702 37082 ft 557 kts 86°
2026-05-09 03:39 41.31339 59.34958 37079 ft 557 kts 87°
2026-05-09 03:40 41.32310 59.45212 37078 ft 558 kts 86°
2026-05-09 03:40 41.33277 59.55480 37060 ft 559 kts 86°
2026-05-09 03:41 41.34071 59.65771 37065 ft 557 kts 91°
2026-05-09 03:41 41.33975 59.76048 37065 ft 552 kts 98°
2026-05-09 03:42 41.33442 59.86255 37072 ft 552 kts 99°
2026-05-09 03:42 41.32917 59.96462 37068 ft 552 kts 99°
2026-05-09 03:43 41.32424 60.06646 37069 ft 552 kts 99°
2026-05-09 03:43 41.31934 60.16861 37026 ft 553 kts 98°
2026-05-09 03:44 41.31439 60.27089 37072 ft 553 kts 98°
2026-05-09 03:44 41.30932 60.37332 37069 ft 553 kts 98°
2026-05-09 03:45 41.30865 60.47616 37067 ft 558 kts 91°
2026-05-09 03:45 41.31306 60.56207 37067 ft 560 kts 89°
2026-05-09 03:46 41.31909 60.66544 37072 ft 560 kts 89°
2026-05-09 03:46 41.32481 60.76884 37063 ft 560 kts 89°
2026-05-09 03:47 41.33028 60.87295 37057 ft 559 kts 90°
2026-05-09 03:47 41.33553 60.97577 37055 ft 559 kts 90°
2026-05-09 03:48 41.34071 61.07922 37055 ft 559 kts 90°
2026-05-09 03:48 41.34579 61.18248 37058 ft 558 kts 90°
2026-05-09 03:49 41.35079 61.28573 37050 ft 558 kts 90°
2026-05-09 03:49 41.35568 61.38867 37057 ft 556 kts 90°
2026-05-09 03:50 41.36047 61.49170 37058 ft 556 kts 90°
2026-05-09 03:50 41.36516 61.59460 37067 ft 556 kts 90°
2026-05-09 03:51 41.36976 61.69750 37058 ft 556 kts 90°
2026-05-09 03:51 41.37428 61.80031 37049 ft 555 kts 90°
2026-05-09 03:52 41.37870 61.90322 37056 ft 555 kts 90°
2026-05-09 03:52 41.38303 62.00620 37055 ft 555 kts 91°
2026-05-09 03:53 41.38725 62.10894 37051 ft 555 kts 91°
2026-05-09 03:53 41.39139 62.21167 37052 ft 555 kts 91°
2026-05-09 03:54 41.39543 62.31464 37057 ft 555 kts 91°
2026-05-09 03:54 41.39940 62.41750 37055 ft 555 kts 91°
2026-05-09 03:55 41.40326 62.52037 37054 ft 555 kts 91°
2026-05-09 03:55 41.40702 62.62322 37035 ft 555 kts 91°
2026-05-09 03:56 41.41071 62.72610 37056 ft 554 kts 91°
2026-05-09 03:56 41.41428 62.82809 37051 ft 554 kts 91°
2026-05-09 03:57 41.41775 62.93086 37049 ft 555 kts 91°
2026-05-09 03:57 41.42117 63.03385 37038 ft 555 kts 91°
2026-05-09 03:58 41.42450 63.13682 37016 ft 555 kts 91°
2026-05-09 03:58 41.42767 63.23966 37030 ft 555 kts 91°
2026-05-09 03:59 41.43083 63.34235 37025 ft 555 kts 91°
2026-05-09 03:59 41.43388 63.44526 37032 ft 555 kts 91°
2026-05-09 04:00 41.43675 63.54823 37020 ft 556 kts 90°
2026-05-09 04:00 41.43963 63.65078 37019 ft 556 kts 90°
2026-05-09 04:01 41.44243 63.75384 37022 ft 556 kts 90°
2026-05-09 04:01 41.44510 63.85700 37019 ft 556 kts 90°
2026-05-09 04:02 41.44770 63.96019 37016 ft 556 kts 90°
2026-05-09 04:02 41.45020 64.06342 37015 ft 557 kts 90°
2026-05-09 04:03 41.45259 64.16693 37011 ft 557 kts 90°
2026-05-09 04:03 41.45492 64.27032 37016 ft 557 kts 90°
2026-05-09 04:04 41.45713 64.37374 36998 ft 558 kts 90°
2026-05-09 04:04 41.45922 64.47750 37011 ft 558 kts 90°
2026-05-09 04:05 41.46129 64.58045 37008 ft 558 kts 90°
2026-05-09 04:05 41.46327 64.68479 37004 ft 558 kts 90°
2026-05-09 04:06 41.46513 64.78842 37001 ft 558 kts 90°
2026-05-09 04:06 41.46688 64.89139 36998 ft 558 kts 90°
2026-05-09 04:07 41.46855 64.99521 36991 ft 558 kts 90°
2026-05-09 04:07 41.47010 65.09903 36995 ft 558 kts 90°
2026-05-09 04:08 41.47161 65.20258 36992 ft 559 kts 90°
2026-05-09 04:08 41.47300 65.30632 36983 ft 560 kts 90°
2026-05-09 04:09 41.47427 65.41024 36990 ft 558 kts 90°
2026-05-09 04:09 41.47550 65.51384 36987 ft 558 kts 90°
2026-05-09 04:10 41.47662 65.61757 36978 ft 558 kts 90°
2026-05-09 04:10 41.47764 65.72095 36985 ft 556 kts 90°
2026-05-09 04:11 41.47856 65.82350 36979 ft 556 kts 90°
2026-05-09 04:11 41.47939 65.92672 36979 ft 556 kts 90°
2026-05-09 04:12 41.48016 66.03008 36971 ft 553 kts 90°
2026-05-09 04:12 41.48079 66.13341 36974 ft 553 kts 90°
2026-05-09 04:13 41.48138 66.23601 36962 ft 552 kts 91°
2026-05-09 04:13 41.48179 66.33769 36969 ft 550 kts 91°
2026-05-09 04:14 41.48217 66.43998 36973 ft 550 kts 91°
2026-05-09 04:14 41.48242 66.54205 36977 ft 550 kts 92°
2026-05-09 04:15 41.47723 66.64356 36981 ft 546 kts 100°
2026-05-09 04:15 41.46380 66.74315 36976 ft 543 kts 104°
2026-05-09 04:16 41.44884 66.84202 36993 ft 543 kts 104°
2026-05-09 04:16 41.43405 66.94073 36978 ft 543 kts 103°
2026-05-09 04:17 41.41941 67.03939 36990 ft 543 kts 103°
2026-05-09 04:17 41.40470 67.13837 36989 ft 543 kts 104°
2026-05-09 04:18 41.39001 67.23648 36989 ft 543 kts 103°
2026-05-09 04:18 41.37504 67.33567 36989 ft 542 kts 103°
2026-05-09 04:19 41.36026 67.43344 36987 ft 542 kts 103°
2026-05-09 04:19 41.34525 67.53205 36985 ft 543 kts 103°
2026-05-09 04:20 41.33013 67.63028 36978 ft 540 kts 103°
2026-05-09 04:20 41.31507 67.72813 36987 ft 539 kts 103°
2026-05-09 04:21 41.29991 67.82605 36984 ft 539 kts 103°
2026-05-09 04:22 41.27924 67.97330 36983 ft 540 kts 98°
2026-05-09 04:22 41.27036 68.07253 36975 ft 540 kts 97°
2026-05-09 04:23 41.26175 68.17184 36984 ft 540 kts 97°
2026-05-09 04:23 41.25289 68.27092 36979 ft 538 kts 97°
2026-05-09 04:24 41.24391 68.36967 36979 ft 537 kts 97°
2026-05-09 04:24 41.23481 68.46852 36976 ft 537 kts 98°
2026-05-09 04:25 41.22562 68.56715 36972 ft 536 kts 97°
2026-05-09 04:25 41.21641 68.66540 36970 ft 535 kts 97°
2026-05-09 04:26 41.20720 68.76288 36966 ft 535 kts 98°
2026-05-09 04:26 41.19781 68.86117 36959 ft 535 kts 98°
2026-05-09 04:27 41.19088 68.95945 36955 ft 533 kts 92°
2026-05-09 04:27 41.18846 69.05819 36955 ft 534 kts 91°
2026-05-09 04:28 41.18624 69.15694 36954 ft 534 kts 91°
2026-05-09 04:28 41.18208 69.25538 36955 ft 533 kts 95°
2026-05-09 04:29 41.17419 69.35330 36960 ft 533 kts 96°
2026-05-09 04:29 41.16599 69.45064 36973 ft 533 kts 96°
2026-05-09 04:30 41.15782 69.54836 36985 ft 531 kts 96°
2026-05-09 04:30 41.14966 69.64555 36988 ft 529 kts 96°
2026-05-09 04:31 41.14151 69.74257 37024 ft 528 kts 96°
2026-05-09 04:31 41.13327 69.83950 37052 ft 528 kts 96°
2026-05-09 04:32 41.12490 69.93657 37079 ft 528 kts 96°
2026-05-09 04:32 41.11654 70.03326 37080 ft 528 kts 96°
2026-05-09 04:33 41.10804 70.13005 37096 ft 528 kts 96°
2026-05-09 04:33 41.10149 70.22699 37122 ft 526 kts 91°
2026-05-09 04:34 41.10331 70.32362 37098 ft 522 kts 83°
2026-05-09 04:34 41.11055 70.41946 37121 ft 522 kts 82°
2026-05-09 04:35 41.11798 70.51532 37134 ft 522 kts 82°
2026-05-09 04:35 41.12497 70.61118 37139 ft 519 kts 83°
2026-05-09 04:36 41.13173 70.70662 37117 ft 519 kts 83°
2026-05-09 04:36 41.13832 70.80218 37105 ft 520 kts 83°
2026-05-09 04:37 41.14485 70.89713 37117 ft 520 kts 83°
2026-05-09 04:37 41.15131 70.99264 37095 ft 518 kts 83°
2026-05-09 04:38 41.15769 71.08794 37076 ft 518 kts 83°
2026-05-09 04:38 41.16301 71.16773 37060 ft 518 kts 83°
2026-05-09 04:39 41.16927 71.26310 37060 ft 518 kts 83°
2026-05-09 04:39 41.17545 71.35849 37046 ft 518 kts 83°
2026-05-09 04:40 41.18151 71.45324 37050 ft 518 kts 83°
2026-05-09 04:40 41.18755 71.54882 37024 ft 518 kts 83°
2026-05-09 04:41 41.19347 71.64419 37027 ft 517 kts 83°
2026-05-09 04:41 41.19938 71.73950 37027 ft 517 kts 83°
2026-05-09 04:42 41.20513 71.83484 37026 ft 517 kts 83°
2026-05-09 04:42 41.21077 71.93040 37037 ft 518 kts 83°
2026-05-09 04:43 41.21635 72.02595 37038 ft 517 kts 83°
2026-05-09 04:43 41.22188 72.12128 37045 ft 517 kts 83°
2026-05-09 04:44 41.22731 72.21681 37044 ft 517 kts 84°
2026-05-09 04:44 41.23262 72.31222 37028 ft 517 kts 84°
2026-05-09 04:45 41.23785 72.40676 37066 ft 515 kts 84°
2026-05-09 04:45 41.24307 72.50244 37057 ft 515 kts 84°
2026-05-09 04:46 41.24820 72.59768 37081 ft 515 kts 84°
2026-05-09 04:46 41.25321 72.69267 37099 ft 514 kts 83°
2026-05-09 04:47 41.25815 72.78697 37101 ft 514 kts 84°
2026-05-09 04:47 41.26304 72.88208 37107 ft 514 kts 84°
2026-05-09 04:48 41.26783 72.97706 37136 ft 514 kts 83°
2026-05-09 04:48 41.27255 73.07229 37125 ft 515 kts 83°
2026-05-09 04:49 41.27720 73.16727 37129 ft 514 kts 83°
2026-05-09 04:49 41.28178 73.26230 37156 ft 515 kts 83°
2026-05-09 04:50 41.28630 73.35753 37153 ft 514 kts 83°
2026-05-09 04:50 41.29070 73.45255 37166 ft 514 kts 84°
2026-05-09 04:51 41.29506 73.54781 37184 ft 515 kts 84°
2026-05-09 04:51 41.29932 73.64315 37180 ft 515 kts 84°
2026-05-09 04:52 41.30344 73.73838 37200 ft 515 kts 83°
2026-05-09 04:52 41.30762 73.83373 37196 ft 516 kts 83°
2026-05-09 04:53 41.31166 73.92851 37193 ft 515 kts 83°
2026-05-09 04:53 41.31612 74.02350 37211 ft 514 kts 81°
2026-05-09 04:54 41.32280 74.11840 37206 ft 515 kts 81°
2026-05-09 04:54 41.32976 74.21338 37204 ft 515 kts 81°
2026-05-09 04:55 41.33657 74.30851 37210 ft 515 kts 81°
2026-05-09 04:55 41.34323 74.40349 37216 ft 514 kts 81°
2026-05-09 04:56 41.34980 74.49843 37204 ft 515 kts 81°
2026-05-09 04:56 41.35630 74.59324 37225 ft 513 kts 81°
2026-05-09 04:57 41.36272 74.68813 37224 ft 513 kts 81°
2026-05-09 04:57 41.36904 74.78277 37228 ft 513 kts 81°
2026-05-09 04:58 41.37527 74.87752 37222 ft 513 kts 81°
2026-05-09 04:58 41.38141 74.97167 37235 ft 513 kts 81°
2026-05-09 04:59 41.38751 75.06666 37240 ft 513 kts 81°
2026-05-09 04:59 41.39347 75.16145 37229 ft 513 kts 81°
2026-05-09 05:00 41.39948 75.25699 37236 ft 514 kts 81°
2026-05-09 05:00 41.40535 75.35137 37232 ft 514 kts 81°
2026-05-09 05:01 41.41116 75.44657 37227 ft 514 kts 81°
2026-05-09 05:01 41.41689 75.54171 37207 ft 515 kts 81°
2026-05-09 05:02 41.42256 75.63695 37205 ft 515 kts 81°
2026-05-09 05:02 41.42812 75.73214 37197 ft 515 kts 81°
2026-05-09 05:03 41.43357 75.82754 37197 ft 515 kts 81°
2026-05-09 05:03 41.43895 75.92278 37192 ft 515 kts 81°
2026-05-09 05:04 41.44429 76.01817 37194 ft 515 kts 81°
2026-05-09 05:04 41.44956 76.11350 37200 ft 515 kts 81°
2026-05-09 05:05 41.45477 76.20891 37201 ft 513 kts 82°
2026-05-09 05:05 41.45980 76.30313 37203 ft 512 kts 82°
2026-05-09 05:06 41.46480 76.39801 37207 ft 512 kts 82°
2026-05-09 05:06 41.46972 76.49283 37210 ft 512 kts 82°
2026-05-09 05:07 41.47455 76.58750 37199 ft 508 kts 82°
2026-05-09 05:07 41.47926 76.68139 37226 ft 506 kts 82°
2026-05-09 05:08 41.48394 76.77517 37194 ft 507 kts 82°
2026-05-09 05:08 41.48847 76.86918 37261 ft 508 kts 82°
2026-05-09 05:09 41.49297 76.96322 37256 ft 505 kts 83°
2026-05-09 05:09 41.49738 77.05710 37250 ft 506 kts 82°
2026-05-09 05:10 41.50172 77.15121 37258 ft 507 kts 82°
2026-05-09 05:10 41.50597 77.24494 37270 ft 505 kts 83°
2026-05-09 05:11 41.51013 77.33767 37267 ft 502 kts 83°
2026-05-09 05:11 41.51417 77.43074 37268 ft 501 kts 83°
2026-05-09 05:12 41.51815 77.52378 37279 ft 502 kts 83°
2026-05-09 05:12 41.52207 77.61684 37283 ft 501 kts 84°
2026-05-09 05:13 41.52591 77.70925 37282 ft 497 kts 84°
2026-05-09 05:13 41.52958 77.80156 37282 ft 497 kts 84°
2026-05-09 05:14 41.53321 77.89370 37267 ft 497 kts 84°
2026-05-09 05:14 41.53684 77.98587 37290 ft 496 kts 85°
2026-05-09 05:15 41.54033 78.07764 37282 ft 493 kts 85°
2026-05-09 05:15 41.54365 78.16911 37268 ft 493 kts 85°
2026-05-09 05:16 41.54695 78.26058 37274 ft 493 kts 85°
2026-05-09 05:16 41.55021 78.35208 37274 ft 492 kts 85°
2026-05-09 05:17 41.55344 78.44354 37261 ft 493 kts 86°
2026-05-09 05:17 41.55658 78.53507 37262 ft 493 kts 86°
2026-05-09 05:18 41.55969 78.62681 37269 ft 493 kts 86°
2026-05-09 05:18 41.56267 78.71784 37252 ft 493 kts 87°
2026-05-09 05:19 41.56106 78.81001 37242 ft 493 kts 94°
2026-05-09 05:19 41.55149 78.90036 37217 ft 494 kts 101°
2026-05-09 05:20 41.53468 78.98946 37192 ft 494 kts 105°
2026-05-09 05:20 41.51628 79.07780 37191 ft 494 kts 105°
2026-05-09 05:21 41.49799 79.16593 37125 ft 491 kts 105°
2026-05-09 05:21 41.47982 79.25387 37121 ft 491 kts 104°
2026-05-09 05:22 41.46159 79.34174 37090 ft 491 kts 104°
2026-05-09 05:22 41.44333 79.42958 37051 ft 491 kts 104°
2026-05-09 05:23 41.42496 79.51725 37046 ft 489 kts 104°
2026-05-09 05:23 41.40668 79.60458 37044 ft 489 kts 104°
2026-05-09 05:24 41.38831 79.69185 37024 ft 489 kts 104°
2026-05-09 05:24 41.36998 79.77849 37024 ft 489 kts 104°
2026-05-09 05:25 41.35143 79.86571 37025 ft 489 kts 104°
2026-05-09 05:25 41.32349 79.99668 37001 ft 490 kts 104°
2026-05-09 05:26 41.30474 80.08410 37008 ft 490 kts 104°
2026-05-09 05:26 41.28594 80.17149 37022 ft 490 kts 104°
2026-05-09 05:27 41.26705 80.25887 36998 ft 492 kts 104°
2026-05-09 05:27 41.24836 80.34658 36996 ft 492 kts 104°
2026-05-09 05:28 41.23017 80.43428 36995 ft 492 kts 103°
2026-05-09 05:28 41.21192 80.52195 36987 ft 492 kts 104°
2026-05-09 05:29 41.19357 80.60962 36991 ft 493 kts 104°
2026-05-09 05:29 41.17507 80.69751 36982 ft 493 kts 104°
2026-05-09 05:30 41.15967 80.77039 36986 ft 493 kts 104°
2026-05-09 05:30 41.14103 80.85827 36984 ft 493 kts 104°
2026-05-09 05:31 41.11935 80.96005 36985 ft 492 kts 104°
2026-05-09 05:31 41.10058 81.04775 36982 ft 492 kts 104°
2026-05-09 05:32 41.08501 81.12025 36980 ft 492 kts 104°
2026-05-09 05:32 41.06616 81.20768 36978 ft 492 kts 104°
2026-05-09 05:33 41.04729 81.29492 36988 ft 492 kts 104°
2026-05-09 05:33 41.02841 81.38186 36980 ft 490 kts 104°
2026-05-09 05:34 41.00950 81.46857 36973 ft 489 kts 104°
2026-05-09 05:34 40.99057 81.55516 36973 ft 489 kts 104°
2026-05-09 05:35 40.97154 81.64171 36973 ft 489 kts 104°
2026-05-09 05:35 40.95423 81.72862 36971 ft 487 kts 102°
2026-05-09 05:36 40.93777 81.81554 36974 ft 487 kts 102°
2026-05-09 05:36 40.92124 81.90257 36974 ft 487 kts 102°
2026-05-09 05:37 40.90470 81.98924 36970 ft 487 kts 102°
2026-05-09 05:37 40.88804 82.07607 36968 ft 487 kts 102°
2026-05-09 05:38 40.87132 82.16282 36968 ft 487 kts 102°
2026-05-09 05:38 40.85464 82.24897 36969 ft 487 kts 103°
2026-05-09 05:39 40.83776 82.33579 36966 ft 487 kts 103°
2026-05-09 05:39 40.82074 82.42300 36973 ft 486 kts 103°
2026-05-09 05:40 40.80380 82.50939 36963 ft 485 kts 103°
2026-05-09 05:40 40.78691 82.59510 36966 ft 485 kts 103°
2026-05-09 05:41 40.76982 82.68150 36959 ft 485 kts 103°
2026-05-09 05:41 40.75269 82.76774 36967 ft 485 kts 103°
2026-05-09 05:42 40.73551 82.85387 36966 ft 485 kts 103°
2026-05-09 05:42 40.71826 82.93999 36963 ft 484 kts 103°
2026-05-09 05:43 40.70099 83.02577 36960 ft 484 kts 103°
2026-05-09 05:43 40.68366 83.11154 36963 ft 484 kts 103°
2026-05-09 05:44 40.66629 83.19724 36966 ft 483 kts 103°
2026-05-09 05:44 40.64884 83.28289 36962 ft 483 kts 103°
2026-05-09 05:45 40.63142 83.36806 36963 ft 483 kts 103°
2026-05-09 05:45 40.61387 83.45350 36962 ft 483 kts 103°
2026-05-09 05:46 40.59626 83.53889 36969 ft 483 kts 103°
2026-05-09 05:46 40.57859 83.62431 36961 ft 482 kts 103°
2026-05-09 05:47 40.56090 83.70947 36959 ft 482 kts 104°
2026-05-09 05:47 40.54315 83.79460 36961 ft 482 kts 104°
2026-05-09 05:48 40.52546 83.87911 36958 ft 482 kts 104°
2026-05-09 05:48 40.50769 83.96417 36962 ft 481 kts 103°
2026-05-09 05:49 40.49043 84.04924 36955 ft 480 kts 103°
2026-05-09 05:49 40.47322 84.13414 36956 ft 480 kts 103°
2026-05-09 05:50 40.45594 84.21898 36957 ft 480 kts 103°
2026-05-09 05:50 40.43858 84.30377 36964 ft 480 kts 103°
2026-05-09 05:51 40.42116 84.38857 36954 ft 480 kts 104°
2026-05-09 05:51 40.40370 84.47312 36957 ft 479 kts 104°
2026-05-09 05:52 40.38617 84.55763 36957 ft 480 kts 104°
2026-05-09 05:52 40.36856 84.64224 36960 ft 480 kts 104°
2026-05-09 05:53 40.35095 84.72662 36954 ft 479 kts 104°
2026-05-09 05:53 40.33330 84.81069 36956 ft 477 kts 104°
2026-05-09 05:54 40.31572 84.89409 36953 ft 477 kts 104°
2026-05-09 05:54 40.29793 84.97817 36956 ft 478 kts 104°
2026-05-09 05:55 40.28015 85.06191 36963 ft 477 kts 104°
2026-05-09 05:55 40.26231 85.14563 36961 ft 476 kts 104°
2026-05-09 05:56 40.24442 85.22925 36952 ft 476 kts 104°
2026-05-09 05:56 40.22644 85.31297 36959 ft 476 kts 104°
2026-05-09 05:57 40.20843 85.39650 36954 ft 476 kts 104°
2026-05-09 05:57 40.19038 85.47996 36962 ft 476 kts 104°
2026-05-09 05:58 40.17226 85.56336 36952 ft 475 kts 104°
2026-05-09 05:58 40.15414 85.64649 36963 ft 475 kts 105°
2026-05-09 05:59 40.13598 85.72950 36957 ft 474 kts 105°
2026-05-09 05:59 40.11776 85.81249 36967 ft 475 kts 105°
2026-05-09 06:00 40.09947 85.89558 36964 ft 475 kts 105°
2026-05-09 06:00 40.08111 85.97852 36960 ft 475 kts 105°
2026-05-09 06:01 40.06003 86.06048 36963 ft 475 kts 108°
2026-05-09 06:01 40.03796 86.14129 36951 ft 475 kts 108°
2026-05-09 06:02 40.01554 86.22326 36949 ft 475 kts 108°
2026-05-09 06:02 39.99335 86.30428 36949 ft 475 kts 108°
2026-05-09 06:03 39.97124 86.38485 36950 ft 474 kts 109°
2026-05-09 06:03 39.94894 86.46593 36965 ft 474 kts 108°
2026-05-09 06:04 39.92662 86.54678 36953 ft 474 kts 109°
2026-05-09 06:04 39.90423 86.62760 36954 ft 474 kts 109°
2026-05-09 06:05 39.88178 86.70839 36958 ft 474 kts 109°
2026-05-09 06:05 39.85925 86.78928 36956 ft 474 kts 109°
2026-05-09 06:06 39.83669 86.86998 36956 ft 474 kts 109°
2026-05-09 06:06 39.81408 86.95064 36962 ft 474 kts 109°
2026-05-09 06:07 39.79137 87.03132 36956 ft 474 kts 109°
2026-05-09 06:07 39.76863 87.11192 36949 ft 474 kts 109°
2026-05-09 06:08 39.74593 87.19215 36954 ft 473 kts 109°
2026-05-09 06:08 39.72315 87.27239 36956 ft 473 kts 109°
2026-05-09 06:09 39.70031 87.35256 36963 ft 473 kts 109°
2026-05-09 06:09 39.67739 87.43278 36959 ft 473 kts 109°
2026-05-09 06:10 39.65461 87.51228 36953 ft 473 kts 109°
2026-05-09 06:10 39.63162 87.59226 36951 ft 473 kts 109°
2026-05-09 06:11 39.60858 87.67218 36952 ft 473 kts 109°
2026-05-09 06:11 39.58544 87.75218 36954 ft 473 kts 109°
2026-05-09 06:12 39.56228 87.83201 36948 ft 473 kts 109°
2026-05-09 06:12 39.53908 87.91176 36948 ft 473 kts 109°
2026-05-09 06:13 39.51582 87.99149 36950 ft 473 kts 109°
2026-05-09 06:13 39.49242 88.07143 36950 ft 473 kts 109°
2026-05-09 06:14 39.46903 88.15109 36949 ft 473 kts 109°
2026-05-09 06:14 39.44560 88.23075 36949 ft 473 kts 109°
2026-05-09 06:15 39.42211 88.31039 36947 ft 473 kts 109°
2026-05-09 06:15 39.39853 88.39010 36943 ft 473 kts 109°
2026-05-09 06:16 39.37493 88.46963 36944 ft 473 kts 109°
2026-05-09 06:16 39.35125 88.54906 36949 ft 473 kts 109°
2026-05-09 06:17 39.32754 88.62842 36951 ft 473 kts 110°
2026-05-09 06:17 39.30375 88.70777 36951 ft 472 kts 110°
2026-05-09 06:18 39.27995 88.78693 36971 ft 472 kts 110°
2026-05-09 06:18 39.25610 88.86603 36974 ft 472 kts 110°
2026-05-09 06:19 39.23217 88.94512 36981 ft 473 kts 110°
2026-05-09 06:19 39.20820 89.02417 37006 ft 473 kts 110°
2026-05-09 06:20 39.18826 89.08979 37015 ft 473 kts 110°
2026-05-09 06:20 39.16414 89.16889 37015 ft 473 kts 110°
2026-05-09 06:21 39.14000 89.24781 37037 ft 473 kts 110°
2026-05-09 06:21 39.11579 89.32673 37072 ft 473 kts 110°
2026-05-09 06:22 39.09164 89.40521 37088 ft 473 kts 109°
2026-05-09 06:22 39.06735 89.48404 37092 ft 473 kts 110°
2026-05-09 06:23 39.04293 89.56299 37107 ft 473 kts 110°
2026-05-09 06:23 39.01851 89.64173 37146 ft 474 kts 109°
2026-05-09 06:24 38.99408 89.72032 37161 ft 473 kts 109°
2026-05-09 06:24 38.96950 89.79909 37158 ft 473 kts 110°
2026-05-09 06:25 38.94492 89.87767 37160 ft 473 kts 110°
2026-05-09 06:25 38.92031 89.95618 37185 ft 473 kts 110°
2026-05-09 06:26 38.89560 90.03480 37194 ft 474 kts 110°
2026-05-09 06:26 38.87074 90.11346 37192 ft 474 kts 110°
2026-05-09 06:27 38.84594 90.19201 37209 ft 474 kts 110°
2026-05-09 06:27 38.82105 90.27066 37219 ft 474 kts 110°
2026-05-09 06:28 38.79608 90.34905 37229 ft 474 kts 110°
2026-05-09 06:28 38.77104 90.42738 37234 ft 475 kts 111°
2026-05-09 06:29 38.74596 90.50574 37240 ft 475 kts 111°
2026-05-09 06:29 38.72102 90.58358 37240 ft 475 kts 111°
2026-05-09 06:30 38.69581 90.66202 37243 ft 475 kts 111°
2026-05-09 06:30 38.67199 90.74091 37243 ft 474 kts 108°
2026-05-09 06:31 38.64973 90.82058 37229 ft 477 kts 108°
2026-05-09 06:31 38.62748 90.90060 37230 ft 477 kts 108°
2026-05-09 06:32 38.60507 90.98068 37212 ft 476 kts 108°
2026-05-09 06:33 38.57136 91.10044 37193 ft 477 kts 108°
2026-05-09 06:33 38.54883 91.18040 37195 ft 477 kts 109°
2026-05-09 06:34 38.51487 91.29985 37176 ft 476 kts 109°
2026-05-09 06:34 38.49221 91.37938 37179 ft 476 kts 109°
2026-05-09 06:35 38.46952 91.45887 37170 ft 476 kts 109°
2026-05-09 06:35 38.44679 91.53831 37171 ft 476 kts 109°
2026-05-09 06:36 38.42395 91.61791 37163 ft 478 kts 109°
2026-05-09 06:36 38.40100 91.69775 37164 ft 478 kts 109°
2026-05-09 06:37 38.37802 91.77741 37160 ft 478 kts 109°
2026-05-09 06:37 38.35494 91.85713 37154 ft 478 kts 109°
2026-05-09 06:38 38.33199 91.93616 37160 ft 479 kts 109°
2026-05-09 06:38 38.30874 92.01600 37158 ft 480 kts 109°
2026-05-09 06:39 38.28545 92.09575 37156 ft 480 kts 110°
2026-05-09 06:39 38.26211 92.17545 37161 ft 480 kts 110°
2026-05-09 06:40 38.23872 92.25507 37159 ft 480 kts 110°
2026-05-09 06:40 38.21525 92.33479 37163 ft 481 kts 110°
2026-05-09 06:41 38.19173 92.41445 37158 ft 481 kts 110°
2026-05-09 06:41 38.16785 92.49397 37157 ft 481 kts 112°
2026-05-09 06:42 38.13994 92.57156 37156 ft 482 kts 115°
2026-05-09 06:42 38.11118 92.64853 37156 ft 482 kts 115°
2026-05-09 06:43 38.08239 92.72554 37160 ft 483 kts 115°
2026-05-09 06:43 38.05356 92.80265 37160 ft 483 kts 115°
2026-05-09 06:44 38.02463 92.87987 37163 ft 483 kts 115°
2026-05-09 06:44 37.99566 92.95704 37157 ft 483 kts 115°
2026-05-09 06:45 37.96664 93.03414 37159 ft 483 kts 115°
2026-05-09 06:45 37.93760 93.11115 37158 ft 485 kts 115°
2026-05-09 06:46 37.90836 93.18843 37148 ft 485 kts 115°
2026-05-09 06:46 37.87915 93.26548 37149 ft 485 kts 115°
2026-05-09 06:47 37.84988 93.34246 37154 ft 485 kts 115°
2026-05-09 06:47 37.82056 93.41938 37151 ft 485 kts 116°
2026-05-09 06:48 37.79115 93.49636 37148 ft 485 kts 116°
2026-05-09 06:48 37.76175 93.57314 37153 ft 485 kts 116°
2026-05-09 06:49 37.73248 93.64934 37152 ft 485 kts 116°
2026-05-09 06:49 37.70293 93.72612 37151 ft 485 kts 116°